User: anonymous   Login
Location: Presov
(49.0000°N, 21.2500°E)
Time: 18:25:56
(UTC+02:00)
Language:

Vanguard 1 Rocket - Orbit

View from above orbital plane
View from above orbital plane
View from above satellite
View from above satellite

Ground track
Ground track

The orbit data is extracted from the following two-line orbital elements,

1 00016U 58002A   21100.79948886  .00000130  00000-0  20904-3 0  9997
2 00016  34.2658  16.2385 2024487  51.3903 325.1280 10.48707796490058
Epoch (UTC): 10 April 2021 19:11:15
Eccentricity: 0.2024487
inclination: 34.2658°
perigee height: 653 km
apogee height: 4223 km
right ascension of ascending node: 16.2385°
argument of perigee: 51.3903°
revolutions per day: 10.48707796
mean anomaly at epoch: 325.1280°
orbit number at epoch: 49005

The dashed part of the orbit path shows where the satellite is in the earth's shadow,  

DLR